This is the latest recevied weather packets stored in our database for station/object WX Beacon. If no packets are shown the sender has not sent any weather packets the latest 10 day(s).
| Time | Temp. | Humidity | Pressure | Rain* | Wind** | Luminosity | Snow |
|---|---|---|---|---|---|---|---|
| 1777744652 | 21.67° C | 46% | 1021.6 hPa | 0 mm | - | - | - |
| 1777743451 | 21.67° C | 46% | 1021.6 hPa | 0 mm | - | - | - |
| 1777742851 | 21.67° C | 46% | 1021.6 hPa | 0 mm | - | - | - |
| 1777741651 | 21.67° C | 46% | 1021.6 hPa | 0 mm | - | - | - |
| 1777741052 | 20° C | 54% | 1021.6 hPa | 0 mm | - | - | - |
| 1777740452 | 20° C | 54% | 1021.6 hPa | 0 mm | - | - | - |
| 1777739253 | 20° C | 54% | 1021.6 hPa | 0 mm | - | - | - |
| 1777738052 | 20° C | 54% | 1021.6 hPa | 0 mm | - | - | - |
| 1777736855 | 17.78° C | 66% | 1021.3 hPa | 0 mm | - | - | - |
| 1777736253 | 17.78° C | 66% | 1021.3 hPa | 0 mm | - | - | - |
| 1777735652 | 17.78° C | 66% | 1021.3 hPa | 0 mm | - | - | - |
| 1777735052 | 17.78° C | 66% | 1021.3 hPa | 0 mm | - | - | - |
| 1777734452 | 17.78° C | 66% | 1021.3 hPa | 0 mm | - | - | - |
| 1777733852 | 15° C | 80% | 1020.9 hPa | 0 mm | - | - | - |
| 1777733252 | 15° C | 80% | 1020.9 hPa | 0 mm | - | - | - |
| 1777732052 | 15° C | 80% | 1020.9 hPa | 0 mm | - | - | - |
| 1777731452 | 15° C | 80% | 1020.9 hPa | 0 mm | - | - | - |
| 1777729652 | 12.22° C | 85% | 1020.3 hPa | 0 mm | - | - | - |
| 1777728452 | 12.22° C | 85% | 1020.3 hPa | 0 mm | - | - | - |
| 1777727853 | 12.22° C | 85% | 1020.3 hPa | 0 mm | - | - | - |
| 1777726652 | 10.56° C | 86% | 1019.5 hPa | 0 mm | - | - | - |
| 1777726053 | 10.56° C | 86% | 1019.5 hPa | 0 mm | - | - | - |
| 1777724852 | 10.56° C | 86% | 1019.5 hPa | 0 mm | - | - | - |
| 1777723052 | 10° C | 88% | 1018.5 hPa | 0 mm | - | - | - |
| 1777721852 | 10° C | 88% | 1018.5 hPa | 0 mm | - | - | - |
* Rain latest hour (hover to see other rain measurements)
** Current wind speed in m/s (hover to see current wind gust speed)